User: anonymous   Login
Location: Heilwood
(40.6210°N, 78.9150°W)
Time: 22:13:20
(UTC-04:00)
Language:

BREEZE-M DEB (TANK) - Orbit

View from above orbital plane
View from above orbital plane
View from above satellite
View from above satellite

Ground track
Ground track

The orbit data is extracted from the following two-line orbital elements,

1 29649U 06056B   15238.81671079 +.00001374 +00000-0 +38607-3 0  9997
2 29649 049.5012 355.6090 5382603 110.1749 326.5763 04.97205750154855
Epoch (UTC): 26 August 2015 19:36:03
Eccentricity: 0.5382603
inclination: 49.5012°
perigee height: 317 km
apogee height: 15927 km
right ascension of ascending node: 355.6090°
argument of perigee: 110.1749°
revolutions per day: 4.97205750
mean anomaly at epoch: 326.5763°
orbit number at epoch: 15485

The dashed part of the orbit path shows where the satellite is in the earth's shadow,  

DLR